Location: Agendoh
(31.0664°N, 8.9343°W)
Time: 00:18:38
(UTC+00:00)

Daily predictions for brighter satellites

Satellite Brightness Start Highest point End
(mag) Time Altitude Azimuth Time Altitude Azimuth Time Altitude Azimuth
Cosmos 2369 Rocket 4.4 04:34:16 15° NNE 04:34:16 15° NNE 04:35:06 10° NNE
Hubble Space Telescope 3.6 04:47:14 13° SE 04:47:14 13° SE 04:47:48 10° SE
Cosmos 2034 Rocket 4.4 04:47:45 53° S 04:47:45 53° S 04:52:28 10° S
SJ 16-02 4.3 05:04:45 10° SE 05:07:28 16° E 05:10:12 10° ENE
OAO 3 Rocket 4.0 05:18:10 40° SSW 05:18:10 40° SSW 05:22:18 10° SE
MOS 1-B Rocket 4.4 05:20:18 10° SSE 05:26:45 63° ENE 05:32:28 10° N
Cosmos 1241 Rocket 4.3 05:26:24 45° NW 05:28:24 75° WSW 05:34:35 10° SSE
Cosmos 921 Rocket 3.1 05:28:48 50° N 05:29:56 80° ENE 05:34:25 10° SSE
Meteor 2-13 Rocket 4.4 05:26:06 10° SSW 05:32:07 58° W 05:38:06 10° N
Genesis I 3.2 05:34:02 74° SW 05:34:02 74° SW 05:37:54 10° SSE
Cosmos 1503 Rocket 3.8 05:28:49 10° SSW 05:34:01 72° WNW 05:39:20 10° NNE
ATLAS 5 CENTAUR R/B 1.5 05:33:09 26° SSW 05:35:02 65° ESE 05:38:55 10° NE
SJ-12 3.8 05:30:59 10° NNE 05:35:09 89° E 05:39:16 10° SSW
Cosmos 2208 Rocket 4.3 05:38:07 44° W 05:38:20 45° WSW 05:43:22 10° S
Cosmos 1867 4.0 05:42:02 38° WSW 05:42:23 39° WSW 05:47:22 10° S
Cosmos 1151 Rocket 3.0 05:42:26 16° N 05:45:56 86° E 05:50:16 10° S
Okean 3 Rocket 3.6 05:46:18 10° SSW 05:50:46 59° W 05:55:16 10° N
Cosmos 1812 2.6 05:51:36 38° NNW 05:52:51 61° W 05:56:36 10° S
Cosmos 1766 Rocket 3.7 05:49:31 10° SSW 05:53:41 45° W 05:57:50 10° N
Meteor 2-6 Rocket 4.1 05:50:15 10° N 05:55:39 83° E 06:01:04 10° S
ATLAS 3B R/B 2.6 05:51:25 10° SSW 05:57:50 81° ESE 06:04:32 10° NNE
Chandra Rocket (1) 3.8 06:04:24 11° SW 06:04:40 11° SW 06:05:23 10° SSW
Envisat 3.3 06:03:17 10° N 06:08:02 42° WNW 06:12:47 10° SW
Cosmos 1328 Rocket 3.4 06:03:47 10° N 06:08:09 75° W 06:12:27 10° S
Cosmos 1174 3.4 06:10:46 23° WSW 06:12:10 39° WNW 06:15:00 10° N
Cosmos 2369 Rocket 4.0 06:16:08 11° NNW 06:16:08 11° NNW 06:16:48 10° NNW
COSMO-SKYMED 1 2.5 06:10:06 10° S 06:14:23 64° W 06:18:41 10° NNW
Cosmos 1939 Rocket 4.4 06:15:05 10° NNE 06:18:43 38° E 06:22:18 10° SSE
SL-4 R/B 1.7 06:18:05 10° SW 06:21:30 79° SE 06:25:06 10° NE
H-2A R/B 4.0 06:21:58 18° NW 06:22:47 19° WNW 06:25:32 10° WSW
Meteor 1-10 Rocket 4.1 06:17:52 10° N 06:23:24 76° W 06:28:56 10° S
Meteor 1-31 Rocket 3.6 06:20:22 10° NNW 06:23:45 28° WNW 06:27:08 10° SW
Cosmos 1408 Rocket 3.8 06:22:00 10° SSW 06:26:06 43° W 06:30:12 10° N
USA 215 4.5 06:20:43 10° E 06:26:29 35° NE 06:32:15 10° NNW
CZ-2C R/B 3.0 06:24:42 10° S 06:30:00 48° W 06:35:13 10° NNW
Cosmos 2279 Rocket 4.3 06:25:40 10° NNW 06:31:28 43° W 06:37:15 10° SSW
Nadezhda 4 Rocket 4.0 06:26:51 10° SSW 06:32:53 63° W 06:39:03 10° N
FALCON 9 R/B 3.8 06:13:18 15° WNW 06:33:18 87° NNE 06:39:24 10° ESE
Cosmos 1743 Rocket 3.5 06:31:31 10° SSW 06:35:53 71° W 06:40:15 10° N
BREEZE-M DEB (TANK) 3.6 06:23:43 10° NW 06:37:46 67° SW 06:41:54 10° SSE
Lacrosse 5 3.4 06:35:39 10° S 06:40:23 41° ESE 06:45:09 10° NE
Landsat 5 4.1 06:37:19 10° S 06:41:34 41° W 06:45:49 10° NNW
NOAA 12 4.0 06:37:53 10° N 06:43:08 80° WNW 06:48:21 10° SSW
FengYun 1-2 T 4.4 06:39:08 10° NNE 06:44:38 83° ESE 06:50:07 10° S
SJ 16-02 2.1 06:41:52 10° SW 06:45:43 30° WNW 06:49:35 10° N
Cosmos 2228 Rocket 4.3 06:41:43 10° N 06:46:04 47° E 06:50:27 10° SSE
Alouette 2 Rocket 4.0 06:45:54 10° N 06:49:23 56° E 06:53:19 10° SSE
Cosmos 1092 Rocket 4.0 06:44:18 10° S 06:50:32 81° W 06:56:51 10° N
Meteor 1-20 Rocket 4.2 06:46:24 10° SSW 06:51:54 72° W 06:57:32 10° N
Cosmos 1515 Rocket 3.9 06:48:02 10° NNW 06:52:08 41° W 06:56:11 10° SSW
Cosmos 1602 3.6 06:49:44 10° SSW 06:53:30 67° W 06:57:17 10° N
Cosmos 1656 4.2 06:50:20 10° S 06:55:40 63° ESE 07:01:02 10° NNE
